Regional Weather Roundup
Issued by NWS Mobile, AL

Home | Current Version | Previous Version | Text Only | Print | Product List | Glossary On
Versions: 1 2 3 4 5 6 7 8 9 10 11 12 13 14 15 16 17 18 19 20 21 22 23 24 25 26 27 28 29 30 31 32 33 34 35 36 37 38 39 40 41 42 43 44 45 46 47 48 49 50
000
ASUS44 KMOB 050316
RWRMOB
REGIONAL WEATHER ROUNDUP
NATIONAL WEATHER SERVICE MOBILE AL
1000 PM CDT SAT JUL 04 2015

ALZ061>064-050400-
COASTAL ALABAMA


CITY           SKY/WX    TMP DP  RH WIND       PRES   REMARKS
MOBILE REG APT CLOUDY    72  71  97 CALM      30.09R FOG
BROOKLEY FIELD CLOUDY    73  72  96 CALM      30.08R FOG
GULF SHORES    PTCLDY    73  71  94 CALM      30.08R

$$

ALZ051>060-050400-
INTERIOR SOUTHWEST AND SOUTH CENTRAL ALABAMA


CITY           SKY/WX    TMP DP  RH WIND       PRES   REMARKS
ANDALUSIA/OPP  CLOUDY    73  69  87 SE3       30.10S
EVERGREEN      CLOUDY    71  69  93 SE5       30.10R
FLORALA        MOCLDY    70  68  93 CALM      30.12F
GREENVILLE     CLOUDY    71  68  90 SE3       30.10R

$$

FLZ001>006-050400-
WESTERN FLORIDA PANHANDLE


CITY           SKY/WX    TMP DP  RH WIND       PRES   REMARKS
CRESTVIEW      PTCLDY    70  70 100 CALM      30.11F
DESTIN         PTCLDY    76  71  85 E5        30.09S
DUKE FIELD     FAIR      71  69  93 E2        30.09S
MARY ESTHER    PTCLDY    76  69  79 N5        30.08S
MILTON         MOCLDY    75  70  83 E5        30.10R
PENSACOLA      PTCLDY    74  71  91 NE6       30.09R FOG
NAS PENSACOLA  PTCLDY    75  68  78 NE7       30.08R HAZE
VALPARAISO     MOCLDY    75  70  83 E6        30.08F

$$

...MARINE OBSERVATIONS...

STATION/POSITION TIME  SKY/WX   TEMP    WIND        PRES    VSBY
                                AIR SEA DIR/SP/G
                 (UTC)          (F)     (DEG/KT/KT) (MB)    (MI)
PASCAGOULA       0200            78      90/  2/  3 1017.1F
PETIT BOIS ISL   0200            82      80/  2/  3 1017.6F
E DAUPHIN ISLAND 0300            81     120/  5/  6 1018.1R
MIDDLE BAY LIGHT 0200            76      70/  3     1016.6F
USCG MOBILE BAY  0200            76 85  300/  2/  3 1016.2F
STATE DOCKS      0200            77 86              1017.3F
MEAHER PARK      0300            75      30/  2     1018.0R
FORT MORGAN      0200            80     360/  5/  6 1017.5F
12 S ORANGE BCH  0250            80 83  100/  4/  4 1017.8R
WVE H/P(F/S)=  2/ 4

PENSACOLA BAY    0200            80 87   CALM  /  2 1018.1F
64 S DAUPHIN ISL 0250            85 87  150/  8/ 10 1018.7R
WVE H/P(F/S)=  1/ 5

67 S FORT MORGAN 0230            81     240/  6     1018.6R
115 SE PENSACOLA 0250            84 85  150/  4/  6 1019.9R
WVE H/P(F/S)=  2/ 5

MID GULF/42001   0250            84 86   90/  6/  8 1018.8R
WVE H/P(F/S)=  2/ 8

EAST GULF/42003  0250            85 86  100/  6/  8 1019.1R
WVE H/P(F/S)=  3/ 9


$$

...NEARBY LOCATIONS

CITY           SKY/WX    TMP DP  RH WIND       PRES   REMARKS
GULFPORT       CLOUDY    77  71  82 CALM      30.06R
BILOXI         CLOUDY    77  71  82 N2        30.06R
PASCAGOULA     MOCLDY    73  72  96 CALM      30.07R
HATTIESBURG    MOCLDY    74  72  93 CALM      30.07R
LAUREL         MOCLDY    72  68  88 CALM      30.08R
MERIDIAN       MOCLDY    71  70  96 S5        30.06R
MERIDIAN NAS   PTCLDY    71  69  93 S6        30.05R
MONTGOMERY     CLOUDY    73  69  87 S8        30.09R
MAXWELL AFB    CLOUDY    72  71  96 S7        30.08R
TROY           CLOUDY    72  69  90 SE6       30.11R
FORT RUCKER    CLOUDY    71  68  90 SE3       30.11S
DALEVILLE      CLOUDY    70  69  98 SE3       30.12S
DOTHAN         CLOUDY    70  69  97 E5          N/A

$$

...OTHER SURROUNDING LOCATIONS...

CITY           SKY/WX    TMP DP  RH WIND       PRES   REMARKS
BIRMINGHAM     CLOUDY    71  68  90 S12       30.08R
TUSCALOOSA     CLOUDY    72  70  93 S6        30.06R
COLUMBUS GA    LGT RAIN  69  67  93 S6        30.10F
PANAMA CITY    NOT AVBL
TALLAHASSEE    PTCLDY    75  71  87 NW3       30.13R
BATON ROUGE    MOCLDY    74  73  97 CALM      30.07R
NEW ORLEANS    MOCLDY    77  70  79 CALM      30.06R
SLIDELL        MOCLDY    75  72  90 CALM      30.06R
JACKSON        CLOUDY    75  70  84 CALM      30.01F
MCCOMB         CLOUDY    72  71  97 CALM      30.08R

$$

...SURROUNDING MARINE OBSERVATIONS...

STATION/POSITION TIME  SKY/WX   TEMP    WIND        PRES    VSBY
                                AIR SEA DIR/SP/G
                 (UTC)          (F)     (DEG/KT/KT) (MB)    (MI)
WAVELAND         0200            79 85  220/  2/  2 1017.5F
PASCAGOULA RGN A 0200            78     150/  3/  5 1016.8F
PASCAGOULA PORT  0200               87                N/A
GRAND ISLE       0200            85 88  220/  2/  3 1017.6F
SOUTHWEST PASS   0300            83     180/  6/  6 1018.4R
PILOT STATION E  0200            83 83  210/  2/  3 1018.1F
SHELL BEACH      0200            79 86  170/  3/  4 1016.6F
PANAMA CITY      0200            83 87  190/  5/  7 1018.9R
APALACHICOLA     0200            83 86  250/  3/  5 1019.5S
TYNDALL TOWER C  0300            83     190/  6/  7 1019.6F
S APLCHCLA/42036 0250            85 86   CALM  /  2 1020.2R
WVE H/P(F/S)=  1/ 4


$$



USA.gov is the U.S. government's official web portal to all federal, state and local government web resources and services.